Location: Harbor View
(36.2448°N, 86.5797°W)
Time: 09:27:17
(UTC+00:00)

Cosmos 1244 Rocket - Pass Details

Date: 29 October 2020
Orbit: 954 x 997 km, 82.9° (Epoch: 04 December)

Event Time Altitude Azimuth Distance (km) Brightness Sun altitude
Rises 23:36:30 0° 354° (N) 3,663 7.5 -9.4°
Reaches altitude 10° 23:39:00 10° 356° (N) 2,718 6.8 -9.9°
Maximum altitude 23:45:15 80° 83° (E) 996 4.5 -11.2°
Drops below altitude 10° 23:51:31 10° 171° (S) 2,732 6.8 -12.4°
Sets 23:54:02 0° 172° (S) 3,682 7.5 -12.9°
